Date String (YYYY-MM-DD hh:mm:ss) UTC,Instrument flags,Ambient pressure (hPa),Sample flow (lpm),Bypass flow (lpm),Sample temperature (°C),Ambient temperature (°C),ASC tube jacket temperature (°C),LED temperature (°C),Box temperature (°C),Sample RH (%),Span deviation,Mass concentration (μg/m³),Mass concentration (μg/m³),Mass concentration (μg/m³)
DateTimeUTC,F1_M11,P_M11,Q1_M11,Q2_M11,T1_M11,T2_M11,T3_M11,T4_M11,T5_M11,U1_M11,ZSPAN_M11,X0_M11,X2_M11,X1_M11
2022-12-01 16:00:00,,0818.5,5.00,0.00,23.0,21.9,00.0,31.8,24.9,10.4,0000.0,0013.32,0003.44,0001.52
2022-12-01 16:01:00,,0818.4,5.00,0.00,23.1,21.9,00.0,31.8,24.9,10.5,0000.0,0013.36,0003.39,0001.51
2022-12-01 16:02:00,,0818.4,5.00,0.00,23.1,21.9,00.0,31.9,24.9,10.2,0000.0,0013.52,0003.31,0001.49
2022-12-01 16:03:00,,0818.3,5.01,0.00,23.1,22.0,00.0,31.9,24.9,10.4,0000.0,0013.67,0003.25,0001.46
2022-12-01 16:04:00,,0818.2,5.01,0.00,23.1,22.0,00.0,31.9,24.9,11.2,0000.0,0014.70,0003.35,0001.51
2022-12-01 16:05:00,,0818.2,5.00,0.00,23.1,22.0,00.0,31.9,25.0,10.8,0000.0,0015.16,0003.44,0001.58
2022-12-01 16:06:00,,0818.2,4.98,0.00,23.1,22.0,00.0,31.9,25.0,10.5,0000.0,0015.86,0003.57,0001.67
2022-12-01 16:07:00,,0818.1,5.00,0.00,23.1,22.0,00.0,31.9,25.0,10.2,0000.0,0016.78,0003.75,0001.84
2022-12-01 16:08:00,,0818.1,5.01,0.00,23.2,22.0,00.0,31.9,25.0,10.1,0000.0,0016.96,0003.89,0002.00
2022-12-01 16:09:00,,0818.2,5.01,0.00,23.2,22.1,00.0,31.9,25.0,10.0,0000.0,0015.82,0003.85,0002.09
2022-12-01 16:10:00,,0818.0,5.00,0.00,23.2,22.1,00.0,32.0,25.0,10.1,0000.0,0016.69,0003.94,0002.18
2022-12-01 16:11:00,,0818.1,5.00,0.00,23.2,22.1,00.0,32.0,25.0,10.1,0000.0,0016.49,0004.05,0002.27
2022-12-01 16:12:00,,0818.3,5.00,0.00,23.2,22.1,00.0,32.0,25.0,10.3,0000.0,0015.62,0004.08,0002.39
2022-12-01 16:13:00,,0818.4,4.99,0.00,23.2,22.1,00.0,32.0,25.1,10.7,0000.0,0015.25,0004.18,0002.54
2022-12-01 16:14:00,,0818.4,5.00,0.00,23.2,22.1,00.0,32.0,25.1,10.8,0000.0,0015.20,0004.31,0002.73
2022-12-01 16:15:00,,0818.4,5.00,0.00,23.3,22.2,00.0,32.0,25.1,10.9,0000.0,0014.47,0004.39,0002.90
2022-12-01 16:16:00,,0818.4,5.01,0.00,23.3,22.2,00.0,32.0,25.1,11.0,0000.0,0013.79,0004.37,0002.95
2022-12-01 16:17:00,,0818.4,5.00,0.00,23.3,22.2,00.0,32.0,25.1,11.1,0000.0,0013.81,0004.41,0003.07
2022-12-01 16:18:00,,0818.4,5.01,0.00,23.3,22.2,00.0,32.1,25.1,11.4,0000.0,0014.16,0004.49,0003.20
2022-12-01 16:19:00,,0818.4,4.99,0.00,23.3,22.2,00.0,32.1,25.1,11.6,0000.0,0014.20,0004.63,0003.29
2022-12-01 16:20:00,,0818.4,4.99,0.00,23.3,22.2,00.0,32.1,25.1,11.5,0000.0,0014.28,0004.72,0003.37
2022-12-01 16:21:00,,0818.4,5.00,0.00,23.3,22.2,00.0,32.1,25.1,10.8,0000.0,0013.93,0004.88,0003.48
2022-12-01 16:22:00,,0818.4,5.00,0.00,23.3,22.2,00.0,32.1,25.1,11.0,0000.0,0013.57,0005.07,0003.61
2022-12-01 16:23:00,,0818.5,5.01,0.00,23.3,22.2,00.0,32.1,25.1,11.0,0000.0,0014.08,0005.21,0003.73
2022-12-01 16:24:00,,0818.6,4.99,0.00,23.3,22.2,00.0,32.1,25.1,11.2,0000.0,0014.46,0005.39,0003.83
2022-12-01 16:25:00,,0818.5,4.99,0.00,23.4,22.2,00.0,32.2,25.1,11.2,0000.0,0014.96,0005.49,0003.90
2022-12-01 16:26:00,,0818.4,5.00,0.00,23.4,22.2,00.0,32.2,25.1,11.2,0000.0,0016.05,0005.60,0003.97
2022-12-01 16:27:00,,0818.3,5.01,0.00,23.4,22.2,00.0,32.2,25.1,11.1,0000.0,0016.58,0005.74,0004.03
2022-12-01 16:28:00,,0818.1,5.00,0.00,23.4,22.2,00.0,32.2,25.2,10.4,0000.0,0016.58,0005.74,0004.02
2022-12-01 16:29:00,,0818.1,4.98,0.00,23.4,22.3,00.0,32.2,25.2,09.8,0000.0,0016.42,0005.67,0003.95
2022-12-01 16:30:00,,0818.2,5.01,0.00,23.4,22.3,00.0,32.2,25.2,09.8,0000.0,0015.54,0005.45,0003.86
2022-12-01 16:31:00,,0818.4,5.01,0.00,23.4,22.3,00.0,32.2,25.2,09.6,0000.0,0015.00,0005.26,0003.76
2022-12-01 16:32:00,,0818.4,4.99,0.00,23.4,22.3,00.0,32.2,25.3,10.0,0000.0,0014.76,0005.09,0003.67
2022-12-01 16:33:00,,0818.5,4.99,0.00,23.4,22.4,00.0,32.3,25.3,10.5,0000.0,0014.08,0004.91,0003.60
2022-12-01 16:34:00,,0818.6,5.00,0.00,23.5,22.4,00.0,32.3,25.3,11.2,0000.0,0013.47,0004.83,0003.55
2022-12-01 16:35:00,,0818.5,5.00,0.00,23.5,22.4,00.0,32.3,25.3,11.7,0000.0,0013.24,0004.71,0003.49
2022-12-01 16:36:00,,0818.4,5.01,0.00,23.5,22.4,00.0,32.3,25.3,11.3,0000.0,0012.58,0004.59,0003.43
2022-12-01 16:37:00,,0818.3,5.01,0.00,23.5,22.4,00.0,32.3,25.3,10.7,0000.0,0011.24,0004.44,0003.35
2022-12-01 16:38:00,,0818.4,4.99,0.00,23.5,22.4,00.0,32.3,25.4,10.7,0000.0,0010.74,0004.30,0003.28
2022-12-01 16:39:00,,0818.3,5.00,0.00,23.5,22.4,00.0,32.3,25.4,10.7,0000.0,0010.59,0004.28,0003.26
2022-12-01 16:40:00,,0818.3,4.99,0.00,23.5,22.4,00.0,32.3,25.4,10.8,0000.0,0010.06,0004.30,0003.28
2022-12-01 16:41:00,,0818.4,5.00,0.00,23.6,22.5,00.0,32.3,25.4,10.6,0000.0,0010.09,0004.31,0003.29
2022-12-01 16:42:00,,0818.4,5.00,0.00,23.6,22.5,00.0,32.4,25.4,10.6,0000.0,0010.12,0004.36,0003.31
2022-12-01 16:43:00,,0818.4,5.01,0.00,23.6,22.5,00.0,32.4,25.4,10.4,0000.0,0009.98,0004.37,0003.31
2022-12-01 16:44:00,,0818.4,4.99,0.00,23.6,22.5,00.0,32.4,25.4,10.4,0000.0,0009.74,0004.35,0003.29
2022-12-01 16:45:00,,0818.3,4.99,0.00,23.6,22.5,00.0,32.4,25.4,10.1,0000.0,0009.64,0004.24,0003.25
2022-12-01 16:46:00,,0818.4,5.01,0.00,23.6,22.5,00.0,32.4,25.4,10.0,0000.0,0009.24,0004.13,0003.18
2022-12-01 16:47:00,,0818.3,5.00,0.00,23.6,22.5,00.0,32.4,25.4,10.3,0000.0,0009.04,0004.06,0003.13
2022-12-01 16:48:00,,0818.3,4.99,0.00,23.6,22.5,00.0,32.4,25.4,10.5,0000.0,0009.10,0004.02,0003.10
2022-12-01 16:49:00,,0818.2,5.01,0.00,23.6,22.5,00.0,32.4,25.5,10.2,0000.0,0009.56,0003.93,0003.03
2022-12-01 16:50:00,,0818.4,5.01,0.00,23.7,22.5,00.0,32.4,25.5,10.3,0000.0,0009.42,0003.84,0002.95
2022-12-01 16:51:00,,0818.4,4.99,0.00,23.7,22.5,00.0,32.5,25.5,10.8,0000.0,0009.37,0003.71,0002.89
2022-12-01 16:52:00,,0818.4,5.00,0.00,23.7,22.5,00.0,32.5,25.5,10.9,0000.0,0009.57,0003.71,0002.86
2022-12-01 16:53:00,,0818.4,5.01,0.00,23.7,22.6,00.0,32.5,25.5,10.7,0000.0,0009.56,0003.69,0002.86
2022-12-01 16:54:00,,0818.3,4.99,0.00,23.7,22.6,00.0,32.5,25.5,09.9,0000.0,0009.62,0003.65,0002.80
2022-12-01 16:55:00,,0818.2,4.99,0.00,23.7,22.5,00.0,32.5,25.5,10.7,0000.0,0009.45,0003.59,0002.76
2022-12-01 16:56:00,,0818.2,5.00,0.00,23.7,22.5,00.0,32.5,25.5,11.1,0000.0,0008.82,0003.58,0002.73
2022-12-01 16:57:00,,0818.0,5.01,0.00,23.7,22.5,00.0,32.5,25.4,09.8,0000.0,0008.69,0003.55,0002.70
2022-12-01 16:58:00,,0818.0,5.01,0.00,23.7,22.5,00.0,32.5,25.5,09.5,0000.0,0008.46,0003.46,0002.65
2022-12-01 16:59:00,,0818.0,5.00,0.00,23.7,22.5,00.0,32.5,25.5,09.3,0000.0,0008.18,0003.40,0002.59
